Weather History for West Palm Beach, FL

Change the Weather History Date:

Saturday, June 8, 2013

  Actual Average Record
Temperature  
Mean Temperature 75 °F 81 °F  
Max Temperature 80 °F 88 °F 95 °F (1948)
Min Temperature 70 °F 74 °F 65 °F (1956)
Degree Days  
Heating Degree Days 0 0  
Month to date heating degree days 0 0  
Since 1 June heating degree days 0 0  
Since 1 July heating degree days 164 233  
Cooling Degree Days 10 16  
Month to date cooling degree days 97 127  
Year to date cooling degree days 1278 1236  
Since 1 June cooling degree days 97 127  
Growing Degree Days 25 (Base 50)    
Moisture  
Dew Point 73 °F    
Average Humidity 96    
Maximum Humidity 100    
Minimum Humidity 91    
Precipitation  
Precipitation 2.95 in 0.27 in 3.88 in (1892)
Month to date precipitation 6.19 2.14  
Year to date precipitation 31.14 20.85  
Snow  
Snow 0.00 in - - ()
Month to date snowfall 0.0  
Since 1 June snowfall 0.0  
Since 1 July snowfall 0.0  
Snow Depth 0.00 in    
Sea Level Pressure  
Sea Level Pressure 30.05 in    
Wind  
Wind Speed 6 mph (SE)    
Max Wind Speed 26 mph    
Max Gust Speed 33 mph    
Visibility 8 miles    
Events Rain , Thunderstorm    
T = Trace of Precipitation, MM = Missing Value Source: NWS Daily Summary

Daily Weather History Graph

Daily Weather History Graph

Search for Another Location

Airport:

Trip Planner

Search our weather history database for the weather conditions in past years. The results will help you decide how hot, cold, wet, or windy it might be!

Date:

Astronomy

Jun. 08, 2013 Rise Set
Actual Time 6:26 AM EDT 8:12 PM EDT
Civil Twilight 6:00 AM EDT 8:39 PM EDT
Nautical Twilight 5:28 AM EDT 9:10 PM EDT
Astronomical Twilight 4:55 AM EDT 9:43 PM EDT
Moon 6:27 AM EDT (6/8) 8:18 PM EDT (6/8)
Length of Visible Light 14h 38m
Length of Day
13h 46m
New Moon, 0% of the Moon is Illuminated
Jun 8
New Moon
Jun 16
First Quarter
Jun 23
Full
Jun 30
Last Quarter
Jul 8
New

Hourly Weather History & Observations

Time (EDT) Temp. Dew Point Humidity Pressure Visibility Wind Dir Wind Speed Gust Speed Precip Events Conditions
12:53 AM 72.0 °F 72.0 °F 100% 30.00 in 10.0 mi South 6.9 mph - N/A   Mostly Cloudy
1:53 AM 72.0 °F 72.0 °F 100% 29.99 in 10.0 mi Calm Calm - N/A   Mostly Cloudy
2:53 AM 71.1 °F 71.1 °F 100% 29.98 in 10.0 mi NW 3.5 mph - N/A   Mostly Cloudy
3:53 AM 72.0 °F 72.0 °F 100% 29.97 in 10.0 mi Calm Calm - N/A   Mostly Cloudy
4:53 AM 71.1 °F 71.1 °F 100% 29.97 in 10.0 mi ESE 4.6 mph - N/A   Mostly Cloudy
5:53 AM 72.0 °F 72.0 °F 100% 30.00 in 10.0 mi SE 4.6 mph - N/A   Mostly Cloudy
6:53 AM 73.0 °F 73.0 °F 100% 30.01 in 10.0 mi South 4.6 mph - N/A   Mostly Cloudy
7:53 AM 73.0 °F 73.0 °F 100% 30.03 in 10.0 mi South 3.5 mph - N/A   Mostly Cloudy
8:53 AM 75.0 °F 73.0 °F 94% 30.06 in 10.0 mi South 3.5 mph - N/A   Mostly Cloudy
9:32 AM 73.4 °F 73.4 °F 100% 30.06 in 7.0 mi SE 6.9 mph - 0.03 in Rain Light Rain
9:40 AM 73.4 °F 73.4 °F 100% 30.07 in 7.0 mi SSE 4.6 mph - 0.03 in Rain , Thunderstorm Light Thunderstorms and Rain
9:48 AM 73.4 °F 73.4 °F 100% 30.07 in 2.0 mi SSE 4.6 mph - 0.04 in Rain , Thunderstorm Heavy Thunderstorms and Rain
9:53 AM 73.9 °F 73.9 °F 100% 30.06 in 2.0 mi ESE 8.1 mph - 0.14 in Rain , Thunderstorm Heavy Thunderstorms and Rain
10:53 AM 72.0 °F 72.0 °F 100% 30.10 in 2.0 mi SSE 12.7 mph - 0.91 in Rain , Thunderstorm Heavy Thunderstorms and Rain
11:53 AM 71.1 °F 71.1 °F 100% 30.11 in 2.5 mi NNW 5.8 mph - 1.00 in Rain , Thunderstorm Thunderstorms and Rain
12:25 PM 71.6 °F 71.6 °F 100% 30.10 in 5.0 mi NNW 5.8 mph - 0.04 in Rain , Thunderstorm Light Thunderstorms and Rain
12:53 PM 72.0 °F 72.0 °F 100% 30.09 in 7.0 mi NNW 3.5 mph - 0.04 in Thunderstorm Thunderstorm
1:27 PM 73.4 °F 73.4 °F 100% 30.08 in 10.0 mi NE 3.5 mph - N/A   Mostly Cloudy
1:50 PM 78.8 °F 73.4 °F 83% 30.06 in 10.0 mi ENE 5.8 mph - N/A Thunderstorm Thunderstorm
1:53 PM 78.6 °F 73.9 °F 85% 30.06 in 10.0 mi East 5.8 mph - N/A Thunderstorm Thunderstorm
2:41 PM 78.8 °F 73.4 °F 83% 30.03 in 10.0 mi SE 6.9 mph - N/A   Mostly Cloudy
2:53 PM 79.0 °F 73.0 °F 82% 30.03 in 10.0 mi SE 11.5 mph - N/A   Mostly Cloudy
3:53 PM 79.0 °F 75.9 °F 90% 30.02 in 10.0 mi ESE 10.4 mph - N/A   Mostly Cloudy
4:53 PM 79.0 °F 75.9 °F 90% 30.04 in 10.0 mi SE 9.2 mph - N/A   Mostly Cloudy
5:53 PM 79.0 °F 75.0 °F 88% 30.04 in 10.0 mi SE 6.9 mph - N/A   Mostly Cloudy
6:53 PM 78.1 °F 75.0 °F 90% 30.05 in 10.0 mi SE 8.1 mph - N/A   Mostly Cloudy
7:53 PM 78.1 °F 75.9 °F 93% 30.07 in 10.0 mi SE 4.6 mph - N/A   Overcast
8:53 PM 77.0 °F 75.9 °F 96% 30.07 in 10.0 mi SE 6.9 mph - N/A   Overcast
9:53 PM 75.9 °F 75.9 °F 100% 30.09 in 10.0 mi ESE 5.8 mph - N/A   Mostly Cloudy
10:53 PM 75.9 °F 75.9 °F 100% 30.10 in 10.0 mi ESE 4.6 mph - N/A   Mostly Cloudy
11:21 PM 73.4 °F 73.4 °F 100% 30.11 in 1.0 mi ESE 26.5 mph 33.4 mph 0.00 in Rain , Thunderstorm Heavy Thunderstorms and Rain
11:50 PM 71.6 °F 71.6 °F 100% 30.11 in 2.0 mi ENE 6.9 mph 19.6 mph 0.72 in Rain , Thunderstorm Heavy Thunderstorms and Rain
11:53 PM 72.0 °F 72.0 °F 100% 30.11 in 3.0 mi NNE 5.8 mph - 0.78 in Rain , Thunderstorm Thunderstorms and Rain